Regional Weather Roundup
Issued by NWS

Home | Current Version | Previous Version | Graphics & Text | Print | Product List | Glossary On
Versions: 1 2 3 4 5 6 7 8 9 10 11 12 13 14 15 16 17 18 19 20 21 22 23 24 25 26 27 28 29 30 31 32 33 34 35 36 37 38 39 40 41 42 43 44 45 46 47 48 49 50
000
ASUS43 KLOT 250803
RWRIL

ILLINOIS REGIONAL WEATHER ROUNDUP
NATIONAL WEATHER SERVICE CHICAGO/ROMEOVILLE IL
300 AM CDT TUE APR 25 2017

NOTE: "FAIR" INDICATES FEW OR NO CLOUDS BELOW 12,000 FEET WITH NO
SIGNIFICANT WEATHER AND/OR OBSTRUCTIONS TO VISIBILITY.

* THESE STATIONS ARE NOT UNDER NWS QUALITY CONTROL. THEY ALSO MAY NOT
  REPORT WEATHER SUCH AS PRECIPITATION OR FOG.

ILZ001-002-007-009-015-016-024-250900-
NORTHWEST ILLINOIS

CITY           SKY/WX    TMP DP  RH WIND       PRES   REMARKS
MOLINE         PTCLDY    54  33  45 SE9       29.64F
STERLING*      CLOUDY    53  37  54 E5        29.68F
SAVANNA*       PTCLDY    57  34  42 SE8       29.66F
$$

ILZ003-004-008-010-011-017-018-250900-
NORTH CENTRAL ILLINOIS

CITY           SKY/WX    TMP DP  RH WIND       PRES   REMARKS
ROCKFORD       CLOUDY    56  38  50 S6        29.72F
FREEPORT*      PTCLDY    52  37  56 SE7       29.70F
ROCHELLE*      CLOUDY    52  38  59 SE3       29.71F
DE KALB*       CLOUDY    53  39  59 SE7       29.72F
PERU*          CLEAR     54  37  53 SE12      29.71F
$$

ILZ005-006-012>014-019>023-250900-
NORTHEAST ILLINOIS

CITY           SKY/WX    TMP DP  RH WIND       PRES   REMARKS
CHICAGO-OHARE  PTCLDY    52  41  66 SE7       29.72F
CHICAGO-MIDWAY CLEAR     60  44  55 SE9       29.73F
AURORA         PTCLDY    54  40  59 SE6       29.72F
LANSING*       CLEAR     55  46  69 SE8       29.74S
JOLIET*        CLEAR     56  44  62 SE3       29.72S
WAUKEGAN       CLEAR     51  39  63 SE9       29.73F
DUPAGE AIRPORT CLEAR     55  43  63 SE8       29.71F
KANKAKEE*      CLEAR     54  43  68 CALM      29.74S
WHEELING       CLEAR     53  40  61 CALM      29.74F
MORRIS*        CLEAR     54  41  62 CALM      29.71S
NORTHERLY ISL    N/A     53  46  77 E1          N/A
$$

LMZ740>746-250900-
SOUTHERN LAKE MICHIGAN

STATION/POSITION SKY/WX   TEMP    WIND        PRES    VSBY  WAVE
                          AIR SEA DIR/SP/G                  HT/PER
                          (F)     (DEG/KT/KT) (MB)    (MI)  (FT/S)
SOUTHERN BUOY              47 41  100/  8/ 10 1008.7          1
HARRISON CRIB              53     150/  8/ 10   N/A
BURNHAM HARBOR             53      CALM  /  4   N/A
CALUMET HARBOR             59     140/  6/ 12 1006.5S
BURNS HARBOR               59     140/ 10/ 15 1007.8F
MICHIGAN CITY              58     130/ 11/ 14   N/A
ST. JOSEPH                 55 50  140/ 12/ 14 1008.1F         1
$$

ILZ025>027-034>036-040-047-049-050-058-095>099-250900-
WEST-CENTRAL ILLINOIS

CITY           SKY/WX    TMP DP  RH WIND       PRES   REMARKS
QUINCY         CLOUDY    57  40  52 S9        29.64F
GALESBURG*     CLEAR     55  34  43 SE8       29.65F
MACOMB*        CLEAR     53  34  49 S8        29.68F
JACKSONVILLE*  CLEAR     59  38  45 S8        29.68F
PITTSFIELD*    PTCLDY    58  44  59 S7        29.68S
$$

ILZ028>032-037-038-041>044-048-051>054-059>061-250900-
CENTRAL ILLINOIS

CITY           SKY/WX    TMP DP  RH WIND       PRES   REMARKS
PONTIAC        CLEAR     48  40  73 SE6       29.72S
BLOOMINGTON    CLEAR     53  38  56 S5        29.73S
DECATUR        CLEAR     48  35  60 CALM      29.71F
PEORIA         CLEAR     56  33  42 S6        29.69F
LACON*         PTCLDY    48  37  64 S6        29.69F
LINCOLN*       CLOUDY    48  36  61 CALM      29.71S
SPRINGFIELD    CLEAR     55  37  50 S7        29.71R
TAYLORVILLE    PTCLDY    52  37  56 S5        29.71R
$$

ILZ033-039-045-046-055>057-062-063-250900-
EAST-CENTRAL ILLINOIS

CITY           SKY/WX    TMP DP  RH WIND       PRES   REMARKS
CHAMPAIGN      CLEAR     48  38  68 SE7       29.72F
RANTOUL*       CLEAR     56  43  60 SE5       29.72S
MATTOON        CLEAR     54  47  77 S5        29.71F
PARIS*         CLEAR     56  50  80 SE7       29.74F
$$

ILZ079-100>102-250900-
SOUTHWEST ILLINOIS

CITY           SKY/WX    TMP DP  RH WIND       PRES   REMARKS
ALTON          CLEAR     54  40  59 SE3       29.70S
BELLEVILLE     CLEAR     50  46  85 CALM      29.70S
CAHOKIA*       CLEAR     48  41  76 S5        29.70S
SPARTA*        CLEAR     54  46  75 SE5       29.72S
$$

ILZ064>066-069>071-074>076-080>082-084>086-088>090-092>094-250900-
SOUTH-CENTRAL ILLINOIS

CITY           SKY/WX    TMP DP  RH WIND       PRES   REMARKS
CARBONDALE     CLEAR     51  51 100 S3        29.72F
CAIRO*         CLEAR     58  55  91 S6        29.74F
EFFINGHAM*     CLEAR     47  45  90 CALM      29.73S
MARION         CLEAR     55  54  94 S5        29.73F
MT. VERNON     CLEAR     46  45  96 CALM      29.72F
CENTRALIA*     CLEAR     55  48  75 S6        29.71S
SALEM*         CLEAR     57  46  67 S3        29.71F
METROPOLIS*    CLEAR     58  55  91 S6        29.75F
$$

ILZ067-068-072-073-078-083-087-091-250900-
SOUTHEAST ILLINOIS

CITY           SKY/WX    TMP DP  RH WIND       PRES   REMARKS
LAWRENCEVILLE  CLEAR     56  52  86 SE6       29.75S
FLORA*         CLEAR     49  46  89 CALM      29.72F
FAIRFIELD*     CLEAR     51  48  89 CALM      29.72F
HARRISBURG*    CLEAR     51  49  93 CALM      29.74S
ROBINSON*      CLEAR     51  48  88 SE3       29.76S
CARMI*         CLEAR     52  51  95 CALM      29.74S
$$

ABBREVIATIONS USED IN REMARKS
   TC - TEMPERATURE IN CELSIUS
  WCI - WIND CHILL INDEX
   HX - HEAT INDEX
  VSB - VISIBILITY
$$





USA.gov is the U.S. government's official web portal to all federal, state and local government web resources and services.